Zurück zum Katalog

CZ-4C R/B

AktivSSO
NORAD 37215·ROCKET BODY·🇨🇳 China

Gestartet Nov 4, 2010 von Taiyuan Satellite Launch Center

Loading…

Nächste Überflüge (nächste 24 Stunden)

TLE

AktuellSource: Space-Track

Epoche: Sep 14, 2026, 09:53 UTC

1 37215U 10059B   26257.41241118  .00000147  00000-0  51290-4 0  9990
2 37215  98.7531 152.1460 0085635 320.9798  38.5235 14.47911338837282

Verfolge CZ-4C R/B in Echtzeit mit AllMySat

Download on the App Store